Location: Unspecified
(51.2465°N, 0.0000°E)
Time: 00:26:38
(UTC+00:00)

COBE sensor cover - Visible Passes

Search period start: 04 April 2026 00:00
Search period end: 14 April 2026 00:00
Orbit: 814 x 832 km, 98.7° (Epoch: 28 March)

Date Brightness Start Highest point End Pass type
(mag) Time Alt. Az. Time Alt. Az. Time Alt. Az.
4 Apr ? 19:28:13 10° W 19:29:26 11° W 19:30:39 10° WNW visible
5 Apr ? 19:05:55 10° SW 19:09:08 16° W 19:12:22 10° NW visible
9 Apr ? 19:28:35 10° W 19:29:46 11° W 19:30:56 10° WNW visible
